User: anonymous   Login
Location: Bieg
(49.3499°N, 10.3835°E)
Time: 06:04:21
(UTC+00:00)
Language:

SL-27 R/B - Orbit

View from above orbital plane
View from above orbital plane
View from above satellite
View from above satellite

Ground track
Ground track

The orbit data is extracted from the following two-line orbital elements,

1 40354U 14084B   24204.24758006  .00091646  00000-0  46005-3 0  9991
2 40354  74.7213 132.8906 0017863 256.6176 103.3066 15.81137746539671
Epoch (UTC): 22 July 2024 05:56:30
Eccentricity: 0.0017863
inclination: 74.7213°
perigee height: 315 km
apogee height: 339 km
right ascension of ascending node: 132.8906°
argument of perigee: 256.6176°
revolutions per day: 15.81137746
mean anomaly at epoch: 103.3066°
orbit number at epoch: 53967

The dashed part of the orbit path shows where the satellite is in the earth's shadow,  

DLR